SCP
0 0 0 0 0 0 0 0 0 0 0 0 0 0 0 0 0 0 0 0 0 0 0 0 0 0 0 0 0 0 0 0 0 0 0 0 0 0 0 0 0 0 0 0
0 0 0 0 0 0 0 0 0 0 0 0 0 0 0 0 0 0 0 0 0 0 0 0 0 0 0 0 0 0 0 0 0 0 0 0 0 0 0 0 0 0 0 0
0 0 0 0 0 0 0 0 0 0 0 0 0 0 0 0 0 0 0 0 0 0 0 0 0 0 0 0 0 0 0 0 0 0 0 0 0 0 0 0 0 0 0 0
0 0 0 0 0 0 0 0 0 0 0 0 0 0 0 0 0 0 0 0 0 0 0 0 0 0 0 0 0 0 0 0 0 0 0 0 0 0 0 0 0 0 0 0
0 0 0 0 0 0 0 0 0 0 0 0 0 0 0 0 0 0 0 0 0 0 0 0 0 0 0 0 0 0 0 0 0 0 0 0 0 0 0 0 0 0 0 0
0 0 0 0 0 0 0 0 0 0 0 0 0 0 0 0 0 0 0 0 0 0 0 0 0 0 0 0 0 0 0 0 0 0 0 0 0 0 0 0 0 0 0 0
0 0 0 0 0 0 0 0 0 0 0 0 0 0 0 0 0 0 0 0 0 0 0 0 0 0 0 0 0 0 0 0 0 0 0 0 0 0 0 0 0 0 0 0
0 0 0 0 0 -0 0 0 0 0 0 0 0 0 0 0 0 0 0 0 0 0 0 0 0 0 0 0 0 0 0 0 0 0 0 0 0 0 0 0 0 0 0 0
0 0 0 0 0 -0 -0 0 0 0 0 0 0 0 0 0 0 0 0 0 0 0 0 0 0 0 0 0 0 0 0 0 0 0 0 0 0 0 0 0 0 0 0 0
0 0 0 0 0 -0 -0 0 0 0 0 0 0 0 0 0 0 0 0 0 0 0 0 0 0 0 0 0 0 0 0 0 0 0 0 0 0 0 0 0 0 0 0 0
0 0 0 0 0 0 0 0 0 0 0 0 0 0 0 0 0 0 0 0 0 0 0 0 0 0 0 0 0 0 0 0 0 0 0 0 0 0 0 0 0 0 0 0
0 0 0 0 0 0 0 0 0 0 0 0 0 0 0 0 0 0 0 0 0 0 0 0 0 0 0 0 0 0 0 0 0 0 0 0 0 0 0 0 0 0 0 0
0 0 0 0 0 0 0 0 0 0 0 0 0 0 0 0 0 0 0 0 0 0 0 0 0 0 0 0 0 0 0 0 0 0 0 0 0 0 0 0 0 0 0 0
0 0 0 0 0 0 0 0 0 0 0 0 0 0 0 0 0 0 0 0 0 0 0 0 0 0 0 0 0 0 0 0 0 0 0 0 0 0 0 0 0 0 0 0
0 0 0 0 0 0 0 0 0 0 0 0 0 0 0 0 0 0 0 0 0 0 0 0 0 0 0 0 0 0 0 0 0 0 0 0 0 0 0 0 0 0 0 0
0 0 0 0 0 0 0 0 0 0 0 0 0 0 0 0 0 0 0 0 0 0 0 0 0 0 0 0 0 0 0 0 0 0 0 0 0 0 0 0 0 0 0 0
0 0 0 0 0 0 0 0 0 0 0 0 0 0 0 0 0 0 0 0 0 0 0 0 0 0 0 0 0 0 0 0 0 0 0 0 0 0 0 0 0 0 0 0
0 0 0 0 0 0 0 0 0 0 0 0 0 0 0 0 0 0 0 0 0 0 0 0 0 0 0 0 0 0 0 0 0 0 0 0 0 0 0 0 0 0 0 0
0 0 0 0 0 0 0 0 0 0 0 0 0 0 0 0 0 0 0 0 0 0 0 0 0 0 0 0 0 0 0 0 0 0 0 0 0 0 0 0 0 0 0 0
0 0 0 0 0 0 0 0 0 0 0 0 0 0 0 0 0 0 0 0 0 0 0 0 0 0 0 0 0 0 0 0 0 0 0 0 0 0 0 0 0 0 0 0
0 0 0 0 0 0 0 0 0 0 0 0 0 0 0 0 0 0 0 0 0 0 0 0 0 0 0 0 0 0 0 0 0 0 0 0 0 0 0 0 0 0 0 0
0 0 0 0 0 0 0 0 0 0 0 0 0 0 0 0 0 0 -0 -0 0 0 0 0 0 0 0 0 0 0 0 0 0 0 0 0 0 0 0 0 0 0 0 0
0 0 0 0 0 0 0 0 0 0 0 0 0 0 0 0 0 -0 -0 0 0 0 0 0 0 0 0 0 0 0 0 0 0 0 0 0 0 0 0 0 0 0 0 0
0 0 0 0 0 0 0 0 0 0 0 0 0 0 0 0 0 0 0 0 0 0 0 0 0 0 0 0 0 0 0 0 0 0 0 0 0 0 0 0 0 0 0 0
0 0 0 0 0 0 0 0 0 0 0 0 0 0 0 0 0 0 0 0 0 0 0 0 0 0 0 0 0 0 0 0 0 0 0 0 0 0 0 0 0 0 0 0
0 0 0 0 0 0 0 0 0 0 0 0 0 0 0 0 0 0 0 0 0 0 0 0 0 0 0 0 0 0 0 0 0 0 0 0 0 0 0 0 0 0 0 0
0 0 0 0 0 0 0 0 0 0 0 0 0 0 0 0 0 0 0 0 0 0 0 0 0 0 0 0 0 0 0 0 0 0 0 0 0 0 0 0 0 0 0 0
Wind_Speed
8 8 7 8 9 8 10 10 10 9 10 10 8 7 7 5 5 4 4 4 4 4 3 3 2 2 2 2 2 2 3 3 4 3 3 3 3 3 4 4 4 4 4 4
6 6 6 9 10 11 11 10 11 12 12 7 6 5 5 5 4 4 4 4 4 4 4 3 3 3 3 3 2 2 3 3 3 3 3 3 3 3 4 4 4 4 5 5
5 3 5 8 7 8 6 6 6 9 7 5 6 5 6 5 5 6 6 5 5 4 4 4 4 4 4 3 3 2 3 3 3 3 3 3 3 3 4 4 4 4 5 5
4 3 7 2 1 3 4 4 5 6 7 6 7 7 6 5 5 5 6 6 5 5 5 5 4 4 4 3 3 2 3 3 2 3 3 3 3 3 3 3 4 4 4 5
3 5 7 3 1 2 4 5 3 5 6 6 6 4 3 3 4 5 6 6 5 5 5 5 5 4 3 3 2 2 2 3 2 3 3 3 3 3 3 3 3 4 4 4
4 6 7 2 1 1 3 5 1 3 4 4 3 4 3 4 6 6 6 5 5 5 5 4 4 3 2 2 2 2 3 3 2 2 3 3 3 3 3 3 3 3 3 4
6 7 7 1 0 2 4 3 2 3 3 3 4 5 5 6 6 6 6 6 5 5 4 4 3 2 2 2 3 3 3 2 2 2 3 3 2 2 2 2 3 3 3 3
5 6 6 2 2 4 4 3 3 4 4 5 6 7 6 6 7 7 7 6 5 4 4 4 3 2 3 3 3 2 2 2 2 2 2 1 2 2 2 3 3 3 3 3
6 5 2 3 3 3 2 4 5 5 5 5 6 7 7 6 6 6 6 5 5 4 5 4 3 2 3 4 3 2 1 1 1 1 1 1 2 2 2 3 3 2 3 2
6 7 6 5 5 5 5 6 6 5 5 5 6 7 7 6 5 5 5 4 4 4 4 4 3 3 3 3 2 2 1 1 1 1 1 1 1 2 2 3 3 3 3 3
7 7 6 5 6 6 6 6 6 6 5 5 5 6 6 5 5 4 4 4 3 4 4 5 4 4 3 3 2 1 1 1 1 1 1 1 1 1 2 3 3 3 3 3
6 4 5 6 5 5 6 6 6 6 5 4 4 5 5 5 4 4 4 4 4 4 4 4 4 3 3 2 1 1 1 1 1 1 1 1 1 1 2 3 3 4 4 4
5 4 5 6 6 5 5 6 5 5 5 5 4 4 4 4 3 3 4 4 4 4 4 4 3 3 3 2 1 1 2 1 1 1 1 1 1 1 1 1 1 2 3 4
4 4 5 5 5 5 4 4 3 3 3 3 3 3 3 3 3 3 4 4 4 3 3 3 3 3 3 2 1 1 2 2 2 1 1 1 1 2 2 2 1 1 2 3
4 5 5 5 4 4 3 2 2 3 3 2 2 2 2 2 3 3 4 4 3 3 3 3 3 3 3 2 1 1 1 1 1 1 1 1 1 2 2 2 2 2 2 2
5 4 4 4 4 4 3 3 3 3 3 3 2 2 2 2 3 3 3 2 2 3 3 3 4 4 2 2 2 1 1 2 2 1 1 1 1 2 2 2 2 2 2 2
2 3 4 4 5 4 4 3 3 3 3 3 3 2 2 2 2 2 3 2 2 3 4 4 4 3 2 2 2 2 1 2 2 2 1 2 2 2 2 2 2 2 2 3
4 4 4 4 4 4 3 3 3 3 3 2 2 2 2 2 2 3 3 3 3 3 4 4 3 3 2 2 2 2 2 1 1 2 2 2 2 2 2 2 3 3 3 3
3 3 3 3 3 2 3 3 2 2 2 1 1 1 2 2 3 3 3 3 3 4 4 4 4 3 2 2 2 2 2 2 2 2 2 2 2 2 2 2 3 3 3 3
3 2 2 2 2 2 2 2 2 2 1 1 1 1 2 2 3 3 3 3 3 3 4 4 4 3 3 3 3 2 2 2 2 2 2 2 2 2 3 3 3 3 3 3
3 3 2 2 2 2 2 2 1 1 2 1 2 2 3 3 3 3 3 3 3 4 4 5 3 3 2 2 3 2 2 2 2 2 2 2 3 3 3 3 3 4 4 4
3 2 2 2 1 2 2 2 1 2 2 2 2 2 3 3 3 3 3 4 4 6 4 3 3 4 3 3 2 2 2 2 2 2 3 3 3 3 4 4 4 4 4 4
2 2 2 2 1 2 2 2 2 2 2 3 3 3 3 4 3 3 4 3 3 6 5 3 5 6 5 2 2 2 3 3 3 3 3 3 4 4 4 5 4 4 5 5
2 2 2 2 1 1 2 2 2 2 3 3 3 3 3 3 3 3 4 6 7 7 5 5 7 7 5 3 2 3 3 3 4 4 4 4 4 4 4 5 5 5 5 6
2 1 1 1 1 2 2 3 3 3 3 3 3 3 3 3 3 4 4 5 7 7 5 6 8 8 4 3 3 3 4 4 4 4 4 4 4 5 5 5 5 6 6 6
2 1 2 2 2 2 2 2 2 3 3 3 3 3 3 3 4 4 4 4 6 7 5 4 4 5 4 4 4 4 4 5 5 5 5 5 5 6 5 6 7 6 6 6
2 1 1 2 2 2 2 2 3 3 3 4 4 4 4 3 3 4 4 4 4 4 4 4 4 4 4 4 4 4 4 4 4 5 5 5 5 5 6 7 6 6 6 6
Wind_Direction
265 277 269 262 254 237 232 242 254 265 264 279 293 298 303 309 316 314 315 322 324 322 324 323 316 302 292 284 274 232 216 217 221 220 211 206 207 210 209 209 209 204 201 203
271 264 264 265 259 246 244 247 254 265 269 289 290 294 293 298 305 306 312 315 315 317 316 313 306 297 287 282 281 255 231 232 229 219 214 207 209 210 207 207 207 206 208 207
266 288 276 259 243 230 229 233 240 255 274 302 295 294 295 300 312 315 317 319 313 308 303 301 297 290 287 286 279 256 244 242 235 223 218 217 213 214 212 209 206 211 215 214
271 266 246 287 63 226 228 256 258 272 285 294 297 300 299 306 315 318 319 318 315 311 307 305 302 295 286 276 261 248 248 246 239 223 221 221 217 220 222 216 214 218 219 219
238 255 269 264 223 216 231 262 274 269 286 310 320 296 263 329 329 313 313 311 309 308 303 303 302 297 286 273 261 249 252 254 244 230 224 222 223 225 225 219 221 224 223 222
228 249 257 285 75 248 240 251 248 264 281 301 317 289 309 348 328 318 316 314 311 311 305 301 303 295 272 266 262 262 267 264 258 239 226 226 228 227 230 223 224 224 226 227
235 247 263 329 342 200 233 283 317 260 266 271 270 285 309 314 313 316 315 312 310 307 303 303 307 285 263 263 262 274 278 267 252 244 236 230 228 224 219 219 218 220 223 229
218 232 250 111 155 215 270 315 286 275 269 269 276 288 294 299 304 309 311 312 312 310 307 312 306 277 267 270 282 285 271 262 252 248 248 235 217 215 212 205 210 219 220 229
218 238 310 189 219 246 286 281 285 284 277 271 275 282 287 290 297 301 303 305 309 307 309 314 310 287 278 295 303 286 272 273 271 268 256 237 220 212 210 208 209 216 217 224
251 258 266 251 255 270 271 272 281 285 283 272 268 277 282 285 291 295 297 301 306 307 307 312 316 304 292 301 301 280 267 276 271 258 261 251 239 224 220 217 215 218 221 224
254 273 285 257 259 271 274 276 282 288 283 273 270 277 280 283 288 291 296 303 304 299 300 305 312 309 308 304 290 262 261 270 268 257 249 260 258 256 248 242 240 234 231 230
254 259 259 279 287 282 277 278 280 284 287 285 274 275 282 282 284 289 294 300 303 304 301 304 309 308 310 303 277 250 255 259 258 254 246 250 258 283 297 279 286 274 262 255
265 286 275 282 292 295 289 287 287 280 282 289 289 279 280 283 287 290 293 296 297 300 302 304 308 309 313 304 274 243 250 261 254 247 239 241 250 262 283 311 304 291 279 275
269 278 272 274 287 298 297 299 302 298 295 294 297 296 289 288 291 291 294 299 301 302 303 305 308 311 315 309 286 263 259 262 261 248 249 250 253 259 263 269 282 285 286 288
271 263 267 288 297 302 306 303 305 309 315 317 312 304 300 294 290 293 301 309 311 313 313 316 315 315 320 308 288 276 274 268 260 258 252 252 256 259 260 263 271 283 294 289
290 279 270 275 284 293 299 295 292 298 310 314 314 308 301 295 299 308 316 321 316 316 320 318 310 313 315 298 286 275 267 286 280 264 253 247 247 249 254 257 264 269 276 285
278 277 276 279 282 286 286 282 281 288 296 300 306 315 316 315 319 323 327 329 313 309 313 309 305 311 303 286 276 280 281 280 283 274 266 260 257 258 260 259 261 269 275 279
264 275 273 272 271 277 288 291 285 286 287 297 311 319 320 314 309 315 323 330 327 322 318 310 312 311 302 294 277 283 281 277 267 264 265 263 265 265 265 263 265 268 272 273
284 283 288 288 281 273 281 288 290 289 293 290 284 294 302 301 298 304 315 325 320 315 321 323 323 319 313 310 301 281 277 272 263 263 263 269 275 270 264 262 263 265 268 270
308 302 301 304 303 288 286 295 298 296 297 284 272 283 293 299 299 298 302 298 295 295 307 313 310 301 297 297 297 279 269 264 262 263 262 259 260 264 263 264 265 266 267 269
312 314 312 308 309 314 308 303 296 296 306 293 271 277 287 298 300 293 288 293 306 303 299 302 302 296 290 283 279 269 265 260 261 264 263 262 263 265 267 268 269 268 269 270
314 313 313 316 320 328 334 329 312 301 303 301 295 292 292 294 292 281 268 276 298 307 306 298 297 295 295 287 267 261 263 264 263 263 263 263 263 265 268 270 270 272 272 273
312 310 310 314 310 317 329 331 320 304 295 293 292 290 289 292 295 289 295 300 300 303 304 295 294 300 303 289 264 261 260 260 262 263 264 264 264 264 266 267 268 270 271 272
323 321 318 324 325 319 321 324 319 306 296 291 286 284 283 289 288 275 279 298 306 306 300 296 300 302 306 292 273 264 261 261 261 261 261 260 261 262 263 265 267 268 268 270
321 321 322 320 314 307 309 314 313 310 306 301 300 293 279 273 279 294 296 295 301 305 301 301 304 307 305 289 277 268 264 260 260 263 261 261 262 262 263 264 265 268 269 268
313 306 302 297 297 300 304 304 305 308 308 307 307 304 298 289 284 286 290 293 292 297 298 294 296 299 290 283 278 275 271 273 276 270 263 263 263 264 264 265 268 267 269 271
317 317 315 313 315 310 303 299 298 301 300 297 298 301 303 301 298 298 297 295 296 295 292 290 289 286 283 280 276 272 269 267 265 265 265 262 261 261 263 265 267 269 270 270